Miscellaneous Local Product
Issued by NWS Hastings, NE

Home | Current Version | Previous Version | Graphics & Text | Print | Product List | Glossary On
Versions: 1 2 3 4 5 6 7 8 9 10 11 12 13 14 15 16 17 18 19 20 21 22 23 24 25 26 27 28 29 30 31 32 33 34 35 36 37 38 39 40 41 42 43 44 45 46 47 48 49 50
000
AXUS43 KGID 231802
MISGRI

GID CWA HOURLY WEATHER ROUNDUP
NATIONAL WEATHER SERVICE HASTINGS NE
1200 PM CST TUE DEC 23 2014

NOTE: "FAIR" INDICATES FEW OR NO CLOUDS BELOW 12,000 FEET WITH NO
SIGNIFICANT WEATHER AND/OR OBSTRUCTIONS TO VISIBILITY.

...SOUTH CENTRAL NEBRASKA...

CITY           SKY/WX    TMP DP  RH WIND       PRES   REMARKS
GRAND ISLAND   LGT SNOW  34  30  85 N21G32    29.83R FOG     WCI  22
HASTINGS       LGT SNOW  34  29  82 N28       29.81R WCI  21
KEARNEY        CLOUDY    34  27  75 NW29G35   29.84F WCI  20
ORD            CLOUDY    33  28  81 N25G40    29.86R WCI  20
YORK           MIX PCPN  34  32  93 N16       29.78R WCI  23
AURORA         LGT SNOW  34  33  96 N21G26    29.80R WCI  22
LEXINGTON      CLOUDY    32  27  81 N31G38    29.89S WCI  18
HOLDREGE       CLOUDY    32  27  81 N22G31    29.86S WCI  19
HEBRON         LGT RAIN  36  32  87 N14G22    29.79R WCI  27

...NEBRASKA PANHANDLE...

CITY           SKY/WX    TMP DP  RH WIND       PRES   REMARKS
CHADRON        LGT SNOW  29  25  85 N9        30.13F FOG     WCI  20
ALLIANCE       CLOUDY    27  23  85 N21G28    30.06S WCI  13
SCOTTSBLUFF    MOSUNNY   32  23  69 NW30G40   30.11S WCI  18
SIDNEY         MIX PCPN  29  21  72 N32G44    30.05S WCI  13

...WESTERN AND NORTH CENTRAL NEBRASKA...

CITY           SKY/WX    TMP DP  RH WIND       PRES   REMARKS
VALENTINE      LGT SNOW  27  23  85 NW23G36   30.00S FOG     WCI  12
AINSWORTH      CLOUDY    28  24  85 NW30G37   29.96R FOG     WCI  12
ONEILL         LGT SNOW  33  33  98 NW23      29.88S WCI  21
BROKEN BOW     LGT SNOW  31  26  82 N31G43    29.90R WCI  16
IMPERIAL       LGT SNOW  29  23  78 N28G38    30.00R VSB 1   WCI  14
NORTH PLATTE   FLURRIES  30  23  75 N18G38    29.95R WCI  18
MCCOOK         CLOUDY    31  24  75 N26G36    29.94R WCI  17

...EASTERN NEBRASKA...

CITY           SKY/WX    TMP DP  RH WIND       PRES   REMARKS
NORFOLK        CLOUDY    34  32  92 N20G28    29.79S FOG     WCI  23
SO SIOUX CITY  CLOUDY    36  33  89 N18       29.77S FOG     WCI  26
TEKAMAH        LGT RAIN  37  34  89 N24       29.76R FOG     WCI  26
COLUMBUS       CLOUDY    34  28  80 N17G23    29.80R WCI  23
ALBION         CLOUDY    34  30  86 N15G23    29.82R FOG     WCI  24
OMAHA EPPLEY   LGT SNOW  36  34  92 N17       29.76R FOG     WCI  26
MILLARD        DRIZZLE   37  33  88 N8G17     29.74R WCI  30
LINCOLN        CLOUDY    36  33  89 N18       29.78R WCI  26
NEBRASKA CITY  CLOUDY    37  35  92 N10       29.73R WCI  29
BEATRICE       CLOUDY    37  33  87 N17       29.76R WCI  27
FALLS CITY     CLOUDY    38  34  85 NW12      29.72S WCI  30

...NORTHERN KANSAS...

CITY           SKY/WX    TMP DP  RH WIND       PRES   REMARKS
GOODLAND       LGT SNOW  29  25  85 N28G40    29.97R FOG     WCI  14
HILL CITY      FLURRIES  33  27  78 N25G36    29.90R WCI  20
NORTON         LGT SNOW  34  25  69 NW24G36   29.89R WCI  21
PHILLIPSBURG   CLOUDY    36  30  80 NW25G37   29.87S WCI  23
SMITH CENTER   FLURRIES  34  28  80 NW26G35   29.84S WCI  21
BELOIT         CLOUDY    36  32  87 NW17G28   29.81S WCI  25
HAYS           CLOUDY    34  21  60 N26G38    29.85S WCI  21
RUSSELL        FLURRIES  34  28  79 N24       29.84R WCI  21
CONCORDIA      CLOUDY    36  33  89 NW17G24   29.79R WCI  26
SALINA         CLOUDY    36  29  75 NW18      29.81S WCI  26
TOPEKA         CLOUDY    40  32  73 W8        29.76S WCI  34



USA.gov is the U.S. government's official web portal to all federal, state and local government web resources and services.